GSAT0221 (GALILEO 25)

Last updated on Mon Oct 07 2024 00:02:28 GMT+0000 (Coordinated Universal Time)

1 43564U 18060A 24279.04457424 -.00000088 00000+0 00000+0 0 9996 2 43564 57.2995 358.5131 0004586 261.2188 98.7822 1.70476338 38600
UTC large
Height (km)
Speed (km/s)
/
Latitude / Longitude
Inclination (degrees)
Orbital Period (minutes)
Azimuth
Elevation
Range (km)
Doppler Factor

Next 0 passes for location: London (51.5072 / 0.1276)

Sorry there are no passes over London.